Location: Gwatt
(46.7204°N, 7.6223°E)
Time: 17:12:51
(UTC+00:00)

Cosmos 1707 - Pass Details

Date: 18 September 2020
Orbit: 515 x 530 km, 82.5° (Epoch: 28 October)

Event Time Altitude Azimuth Distance (km) Brightness Sun altitude
Rises 19:16:16 0° 345° (NNW) 2,653 6.9 -17.8°
Reaches altitude 10° 19:18:27 10° 340° (NNW) 1,758 6.0 -18.1°
Maximum altitude 19:22:10 48° 266° (W) 688 3.7 -18.7°
Drops below altitude 10° 19:25:50 10° 192° (SSW) 1,739 5.2 -19.3°
Enters shadow 19:26:05 - 191° (S) 1,839 5.3 -19.3°
